Flag for Italy Weather past 2 weeks in Modena, Italy

Now
52 °F

Clear.


Feels Like: 49 °F
Forecast: 46 / 64 °F
Wind: 7 mph from Southwest

Location: Bologna / Borgo Panigale

Current Time: Mar 31, 2015 at 4:17:40 AM

Latest Report: Mar 31, 2015 at 3:50 AM


Visibility: 10 mi

Pressure: 29.86 "Hg

Humidity: 77%

Dew point: 45 °F

Location of ModenaLocation

Historic Weather in Modena — Graph

°F

Modena temperature yesterday

Maximum temperature yesterday: 75 °F (at 5:50 PM)
Minimum temperature yesterday: 45 °F (at 5:50 AM)
Average temperature yesterday: 59 °F

Past Weeks' High & Low Weather Summary

 TemperatureHumidityPressure
High75 °F (Mar 30, 5:50 PM)100% (Mar 16, 4:50 AM)30.33 "Hg (Mar 16, 4:50 AM)
Low39 °F (Mar 19, 11:50 PM)26% (Mar 28, 4:50 PM)29.45 "Hg (Mar 25, 1:20 PM)
Average51 °F78%29.98 "Hg
* Reported Mar 16 1:20 AM — Mar 31 2:50 AM, Modena, Weather by CustomWeather, © 2015

Note: Actual official high and low records may vary slightly from our data, if they occured in-between our weather recording intervals... More about our weather records

Advertising

Modena weather history for previous 24 hours

 ConditionsComfort  
Time TempWeatherWind HumidityBarometerVisibility
2:50 AM
Tue, Mar 31
52 °FClear.5 mph77%29.86 "Hg10 mi
2:20 AM54 °FClear.5 mph67%29.83 "Hg10 mi
1:50 AM55 °FClear.2 mph63%29.83 "Hg10 mi
12:50 AM54 °FClear.2 mph72%29.83 "Hg10 mi
12:20 AM55 °FClear.2 mph67%29.83 "Hg10 mi
11:50 PM
Mon, Mar 30
57 °FClear.2 mph63%29.80 "Hg10 mi
10:50 PM61 °FPassing clouds.8 mph55%29.80 "HgN/A
10:20 PM63 °FClear.12 mph52%29.77 "Hg10 mi
9:50 PM61 °FClear.9 mph55%29.74 "Hg10 mi
9:20 PM63 °FClear.8 mph56%29.74 "Hg10 mi
8:50 PM64 °FClear.9 mph52%29.71 "Hg10 mi
8:20 PM64 °FPassing clouds.8 mph52%29.71 "HgN/A
7:50 PM64 °FPassing clouds.6 mph52%29.68 "HgN/A
7:20 PM70 °FPassing clouds.6 mph43%29.65 "HgN/A
6:50 PM72 °FPassing clouds.8 mph41%29.62 "HgN/A
6:20 PM72 °FPassing clouds.12 mph41%29.62 "HgN/A
5:50 PM75 °FPassing clouds.7 mph39%29.59 "HgN/A
5:20 PM73 °FSunny.12 mph41%29.59 "Hg10 mi
4:50 PM73 °FPassing clouds.10 mph41%29.59 "HgN/A
4:20 PM73 °FPassing clouds.8 mph44%29.59 "HgN/A
3:50 PM72 °FPassing clouds.9 mph47%29.59 "HgN/A
3:20 PM72 °FPassing clouds.8 mph47%29.59 "HgN/A
2:50 PM72 °FPassing clouds.8 mph47%29.59 "HgN/A
2:20 PM70 °FPassing clouds.7 mph50%29.59 "HgN/A
1:50 PM68 °FPassing clouds.5 mph56%29.62 "HgN/A
1:20 PM66 °FPassing clouds.7 mph60%29.62 "HgN/A
12:50 PM64 °FPassing clouds.7 mph64%29.62 "HgN/A
12:20 PM64 °FPassing clouds.6 mph60%29.62 "HgN/A
11:50 AM63 °FPassing clouds.6 mph59%29.65 "HgN/A
11:20 AM61 °FPassing clouds.6 mph63%29.65 "HgN/A
10:50 AM61 °FPassing clouds.6 mph55%29.65 "HgN/A
10:20 AM57 °FPassing clouds.5 mph67%29.65 "HgN/A
9:50 AM55 °FPassing clouds.5 mph77%29.68 "HgN/A
9:20 AM52 °FPassing clouds.5 mph88%29.68 "HgN/A
8:50 AM50 °FClear.2 mph88%29.68 "HgN/A
8:20 AM48 °FClear.3 mph94%29.65 "HgN/A
7:50 AM46 °FClear.3 mph93%29.65 "HgN/A
7:20 AM45 °FFog.5 mph100%29.62 "Hg5 mi
6:50 AM45 °FFog.2 mph93%29.65 "Hg4 mi
6:20 AM45 °FClear.3 mph100%29.65 "Hg5 mi
5:50 AM45 °FClear.2 mph100%29.65 "Hg10 mi
5:20 AM46 °FClear.2 mph93%29.65 "Hg10 mi
4:50 AM46 °FClear.5 mph93%29.65 "Hg10 mi
4:20 AM48 °FClear.2 mph87%29.65 "Hg10 mi
Weather by CustomWeather, © 2015

See weather overviewHow to use our weather pages